Wind_Speed
30 30 30 29 27 26 25 25 25 25 25 25 24 23 21 20 19 17 15 15 15 16 16 15 15 15 15 15 16 18 19 20 20 19 20 20 20 20 20 19 19 20
30 30 29 28 26 25 25 25 25 25 26 25 24 23 21 20 18 17 16 16 17 18 18 17 16 16 17 17 17 19 20 21 21 20 21 21 20 20 20 19 19 20
28 28 28 28 27 26 25 25 25 25 26 25 24 23 21 19 18 17 17 18 19 19 19 18 17 16 17 18 19 20 20 21 21 21 21 21 20 20 19 19 20 20
27 26 26 26 26 26 26 26 25 25 26 25 23 22 21 19 18 18 18 19 20 20 19 17 16 16 18 19 20 20 21 21 21 21 22 21 19 20 20 20 21 21
27 25 25 25 25 26 27 27 27 26 26 24 23 23 21 20 19 20 20 20 21 21 20 18 17 19 20 21 21 21 21 21 21 21 22 22 20 20 21 21 22 21
28 26 26 25 25 25 26 27 28 27 26 25 24 24 22 21 21 21 22 22 22 22 21 21 21 22 22 21 21 21 21 21 21 21 23 22 20 20 19 20 20 20
30 29 27 25 25 25 27 28 28 28 27 26 26 25 23 22 22 22 22 22 22 22 21 21 23 23 21 21 21 21 20 21 21 22 22 21 19 18 18 18 19 20
31 30 28 27 26 26 27 29 29 28 27 27 26 26 24 22 22 22 22 23 22 22 21 21 22 23 22 21 21 20 20 21 21 21 21 20 19 18 17 17 18 19
31 30 29 28 28 27 29 30 30 29 28 28 27 25 23 21 21 22 22 23 22 22 21 21 22 22 21 21 21 20 20 21 21 21 21 20 19 18 17 18 18 18
30 30 30 29 28 29 30 30 30 30 29 28 27 24 21 21 21 21 22 22 22 22 22 22 22 21 20 20 20 19 20 21 21 19 19 19 19 18 17 18 19 18
30 31 31 29 29 30 30 30 30 30 28 27 25 23 21 22 22 22 22 22 22 22 22 22 21 21 21 21 19 19 19 20 20 18 18 18 17 17 17 17 17 16
31 31 30 29 30 31 30 30 30 28 27 26 25 24 23 23 23 22 21 21 22 22 22 22 21 20 21 21 19 19 19 19 19 18 18 17 17 16 16 16 16 15
30 30 29 30 31 31 30 30 29 27 26 26 25 25 25 24 23 21 20 20 21 22 21 21 20 21 21 20 19 19 20 19 19 19 19 18 17 16 16 15 15 14
30 29 29 30 31 31 30 29 28 27 26 26 26 25 25 25 23 21 20 20 21 21 21 20 20 21 21 20 20 20 20 20 20 20 19 18 17 16 15 14 13 12
30 29 30 30 30 30 30 29 28 27 26 26 26 25 25 24 22 21 21 21 21 21 20 20 21 22 22 22 22 21 20 20 20 20 19 18 17 16 14 13 12 11
30 30 30 30 31 30 30 30 28 27 27 27 26 24 24 24 22 21 21 22 22 21 21 21 22 22 22 23 23 22 21 21 21 20 19 19 18 16 14 12 11 10
30 30 30 30 31 31 31 30 29 28 28 27 26 25 24 23 22 21 21 21 22 22 22 22 22 22 23 23 22 22 22 22 22 21 20 18 17 16 14 14 14 14
30 30 31 31 31 31 31 31 30 29 29 28 26 25 24 22 22 21 20 21 22 22 23 23 23 23 23 23 22 22 22 23 22 21 20 18 17 15 15 17 18 18
30 31 31 32 31 31 31 31 30 29 29 28 26 25 24 23 22 21 20 21 23 23 24 23 23 23 23 23 23 23 22 22 22 21 20 19 17 16 18 20 21 20
30 31 32 31 30 30 31 30 29 29 28 27 26 25 24 24 22 21 21 22 23 24 24 23 23 23 23 23 23 22 22 22 22 21 21 19 18 18 20 21 21 20
31 31 31 31 30 30 30 30 30 29 28 28 27 26 25 25 24 23 22 23 24 24 24 22 23 23 23 23 23 22 22 23 23 22 20 19 17 17 19 20 19 18
31 31 31 31 31 30 30 30 29 29 28 28 27 26 25 25 24 23 23 24 24 24 24 23 23 24 23 23 23 23 23 23 22 22 21 19 17 16 17 16 15 14
31 31 31 31 31 30 29 29 29 28 28 28 27 26 25 25 24 23 24 24 24 24 24 23 23 24 24 24 23 23 23 23 23 22 20 19 18 18 17 15 14 14
31 32 32 31 31 31 30 29 29 29 29 29 28 27 26 25 24 23 23 23 23 23 23 23 24 24 24 24 23 22 21 23 24 22 20 20 20 19 18 17 16 15
32 33 32 31 32 32 33 32 31 31 31 30 29 28 26 25 24 23 23 22 22 22 21 21 22 23 24 24 24 22 20 22 23 22 20 21 20 19 17 17 16 15
32 32 33 34 34 34 34 33 32 32 32 31 29 27 26 25 24 23 22 20 20 20 20 20 20 23 26 27 27 25 22 21 22 22 21 20 18 17 17 17 16 16
Wind_Direction
179 178 179 177 176 174 173 173 174 177 176 172 169 167 168 171 173 174 170 167 163 156 151 149 152 154 151 150 150 147 144 140 137 136 135 130 127 125 122 120 118 115
175 176 177 175 174 173 174 177 180 181 178 174 172 169 171 174 173 174 169 162 157 152 151 153 157 158 153 152 153 147 143 139 136 135 133 128 127 125 123 120 118 117
172 172 173 174 174 172 174 179 182 181 177 174 173 172 174 176 173 170 166 160 155 151 153 158 160 158 152 152 154 147 142 139 135 135 131 127 127 125 122 121 117 115
170 170 171 172 173 173 176 179 180 179 176 173 173 175 176 174 168 163 160 158 155 152 156 161 160 154 150 152 151 145 141 139 136 136 131 126 127 125 122 121 116 112
173 171 171 170 171 174 176 178 177 175 173 171 171 174 173 168 162 158 156 156 155 155 158 159 156 153 152 152 150 145 142 140 138 138 132 126 126 125 122 119 115 110
174 173 174 173 174 176 177 176 175 172 172 170 170 171 169 164 160 158 157 157 156 156 157 155 154 155 155 152 149 146 144 142 141 138 132 127 127 126 125 121 116 111
169 170 174 176 177 178 177 174 172 171 171 170 169 169 167 162 161 160 159 159 159 158 156 154 155 157 155 153 149 147 146 144 143 139 133 130 130 131 131 127 122 117
165 167 172 175 176 178 176 172 171 171 170 169 168 168 167 165 163 162 162 163 162 160 156 156 158 156 154 155 151 148 148 145 143 139 134 133 134 134 133 131 126 121
163 166 170 174 175 176 175 172 171 171 171 170 168 167 168 167 165 164 165 166 164 160 157 158 158 156 156 157 154 151 149 146 143 140 138 137 136 135 135 132 127 120
164 167 170 173 175 174 173 171 171 171 171 171 169 166 166 166 166 165 166 166 163 160 159 159 158 157 158 158 155 153 152 149 146 144 143 142 138 137 137 134 127 121
164 167 170 173 175 174 172 171 171 171 172 173 170 165 163 164 167 169 168 167 165 162 161 160 160 160 159 157 157 157 156 151 147 144 143 141 139 137 136 133 128 124
164 167 170 173 174 173 173 172 170 171 172 173 170 165 165 168 169 171 171 170 167 165 163 163 164 162 160 159 160 161 157 151 147 145 143 141 139 138 137 136 134 133
165 167 170 173 173 172 173 171 169 170 170 169 168 168 170 170 169 171 173 171 168 166 166 167 165 163 162 162 162 160 156 153 152 149 145 143 142 142 143 144 143 144
165 167 169 171 171 170 170 169 169 170 169 166 168 172 173 171 171 172 171 169 169 169 170 169 166 165 166 165 163 161 160 159 156 152 147 145 146 148 151 151 149 148
164 166 168 169 169 168 167 168 168 168 167 167 171 175 174 172 172 172 169 169 172 172 172 171 170 170 170 169 166 166 166 162 156 153 150 150 151 153 155 156 154 151
164 165 167 168 168 167 166 166 166 165 166 170 174 175 173 172 173 172 171 173 175 174 173 173 174 174 173 172 171 171 168 162 157 156 156 157 157 156 157 158 155 150
164 166 168 168 169 168 167 165 164 165 168 172 174 174 173 173 173 173 174 177 177 176 176 177 176 176 175 175 176 174 169 163 160 159 160 164 166 162 157 154 150 145
164 167 169 169 169 168 166 165 165 167 170 172 173 172 173 174 174 175 178 179 179 178 178 178 178 178 178 179 178 175 171 167 165 163 165 168 169 165 159 156 155 152
166 167 169 170 170 168 166 165 165 168 171 172 172 173 174 174 173 177 181 181 181 181 179 178 179 180 181 180 177 175 173 171 168 168 170 172 172 172 167 165 164 160
167 169 169 170 170 168 166 166 166 168 171 173 173 173 174 174 174 179 183 184 185 184 181 180 181 182 182 180 177 176 175 173 172 172 175 179 182 180 173 169 167 164
169 170 171 171 171 168 166 166 166 167 170 173 174 175 175 176 177 180 183 186 189 187 182 182 183 183 183 181 178 177 176 175 175 175 177 181 182 178 174 173 174 173
170 171 172 173 171 168 167 167 166 166 169 173 174 174 176 177 179 182 184 186 189 188 184 182 183 182 184 183 180 179 178 178 178 178 179 179 177 176 177 179 184 186
171 172 173 173 172 170 168 167 166 167 170 173 173 173 176 179 180 183 186 188 189 187 184 183 182 182 185 186 183 181 179 179 179 179 180 180 178 180 183 185 193 196
172 173 174 173 173 172 170 168 168 170 172 175 176 176 178 181 182 182 186 191 192 188 185 187 186 184 185 187 185 184 183 183 182 180 180 180 178 178 181 184 188 193
174 175 175 175 175 176 174 173 173 174 176 178 180 180 179 181 183 182 185 193 195 190 187 188 188 187 188 189 188 187 187 186 185 181 177 175 174 175 179 182 184 187
176 177 179 179 180 180 179 177 176 176 177 179 179 179 179 181 183 184 186 189 191 189 186 185 189 195 195 193 191 190 188 186 186 185 182 180 181 184 189 192 195 198
Height
798 800 802 804 806 808 809 812 814 816 818 820 821 822 823 824 826 827 828 829 830 831 832 833 835 836 837 839 841 841 841 842 844 845 845 845 846 847 848 849 849 849
798 800 802 804 806 808 810 811 813 815 818 820 821 822 823 825 826 827 828 829 831 831 833 833 835 836 836 839 841 842 842 843 844 845 845 846 847 848 849 850 850 850
798 800 802 804 805 807 810 812 814 815 817 819 821 822 823 825 826 827 828 829 831 832 833 834 835 836 836 839 842 843 843 844 845 845 846 846 848 849 850 851 851 851
798 800 801 803 805 807 809 811 813 815 817 818 820 822 823 825 826 827 828 829 831 833 834 835 836 836 838 841 842 843 844 844 845 846 846 847 849 850 851 852 852 852
797 799 801 803 804 806 809 811 812 814 816 818 820 822 823 824 826 827 829 830 832 833 834 835 837 838 840 842 842 843 844 845 846 847 847 848 850 851 852 853 852 853
797 798 800 802 804 806 808 810 812 813 816 818 819 821 823 824 826 827 829 831 832 834 834 835 836 839 841 841 842 843 844 845 846 847 847 849 851 852 853 853 853 853
795 797 799 802 803 806 808 809 811 813 815 817 819 821 823 825 826 828 830 832 833 834 834 835 836 839 841 841 842 843 844 846 847 847 848 849 851 852 853 854 853 853
794 796 799 801 803 806 807 809 811 813 815 817 819 821 823 825 827 829 831 832 833 834 834 835 837 839 840 841 842 844 845 846 847 847 849 850 851 853 853 854 854 854
793 795 798 801 803 805 807 808 810 813 815 817 819 821 823 825 827 829 830 831 833 834 834 836 838 838 840 842 843 844 845 846 847 848 849 850 851 853 853 854 854 854
792 794 797 800 802 804 806 807 810 812 814 816 818 820 822 825 827 829 830 831 833 833 834 836 837 838 840 842 843 845 845 846 847 848 849 850 852 853 853 854 854 855
791 794 796 799 801 803 805 807 809 811 814 816 818 820 822 824 826 828 830 831 832 833 834 836 837 838 840 842 844 845 845 846 847 849 850 851 852 853 854 855 855 856
790 793 796 798 800 802 804 806 808 810 813 815 817 819 821 824 825 827 829 830 831 833 834 835 836 838 839 841 844 845 846 847 848 849 850 852 853 854 855 855 856 856
789 792 795 797 799 801 803 806 808 810 812 814 817 819 821 823 824 826 828 829 831 832 834 835 836 837 839 841 843 845 846 847 848 849 850 852 853 854 855 856 856 857
789 792 794 796 799 801 803 805 807 809 811 814 816 818 820 822 824 825 827 829 831 832 834 835 836 837 839 841 843 845 846 847 848 849 850 851 853 854 855 856 857 858
788 791 793 796 798 800 803 805 807 809 811 814 816 818 820 822 823 825 827 829 830 832 833 834 835 837 838 840 842 844 845 846 847 849 850 851 852 854 855 857 858 858
787 790 793 795 798 800 802 804 806 809 811 814 816 818 820 822 823 825 826 828 829 831 832 834 835 836 838 840 841 843 844 845 847 848 849 850 851 853 855 856 858 858
786 789 792 794 797 799 801 803 806 808 810 813 816 818 820 821 823 825 826 828 829 830 832 833 834 836 837 839 841 842 843 844 846 847 848 849 851 852 854 856 857 858
785 788 791 794 796 798 801 803 805 807 810 813 815 817 819 821 823 825 826 827 829 830 831 832 834 836 837 839 840 841 843 844 845 846 847 849 850 852 853 854 855 856
785 787 790 793 796 798 800 802 804 806 809 812 814 816 818 820 822 824 825 827 828 829 830 832 834 835 837 838 840 841 843 844 845 846 847 848 850 851 852 852 853 854
784 787 790 793 795 797 800 801 803 805 808 811 813 815 817 819 821 823 824 826 827 828 830 832 833 835 836 838 840 841 842 844 845 846 847 848 849 850 851 852 853 854
783 786 789 792 794 796 798 800 802 804 807 810 812 814 816 817 819 821 823 825 826 827 829 831 833 835 837 838 840 841 842 844 845 846 847 848 849 850 851 852 853 854
782 785 788 791 793 795 797 799 801 803 806 809 811 813 815 817 819 821 822 824 825 826 829 831 833 835 836 838 840 841 842 843 845 846 847 848 849 851 852 853 854 855
781 784 787 790 792 794 796 798 800 802 805 807 810 812 814 816 818 820 821 822 823 825 827 830 832 834 836 838 840 841 843 843 845 846 847 848 849 851 851 852 853 854
780 783 786 788 790 792 794 796 798 800 803 805 808 809 812 814 816 818 820 821 822 825 827 829 832 834 837 839 840 842 843 844 845 845 847 848 849 850 851 852 853 854
779 781 784 786 788 790 791 793 795 798 800 803 806 808 810 813 815 818 819 820 822 825 827 830 833 835 837 838 839 841 843 844 845 845 846 848 848 849 851 852 853 854
777 779 781 783 785 787 789 791 793 796 798 801 804 806 809 812 815 817 819 820 822 825 827 829 832 834 835 836 837 839 841 843 844 845 846 847 848 849 850 851 852 853